RH
8 7 7 6 6 5 5 5 4 4 4 4 4 4 4 4 4 4 4 4 4 4 4 5 5 5 5 5 5 5 5 5 4 4 5 4 4 5 5 5 5 5 5 5 5 5 5 5 6 5 5 6 6 6 6 6 7 6 7 7 8 8 9 9 9 11 13 14 14 15 17 20 24 29 34 38 40 41 42 44 46 48 49 48 48
8 7 7 6 6 5 5 4 4 4 4 4 3 3 3 3 3 3 4 4 4 4 4 4 4 5 5 5 5 5 5 5 5 5 4 4 4 4 4 4 4 4 5 5 5 5 5 5 5 5 5 5 5 6 6 6 6 6 6 6 6 6 6 7 7 8 10 12 12 13 13 13 15 18 22 28 33 37 39 42 44 47 49 50 50
8 7 6 6 5 5 5 4 4 4 3 3 3 3 3 3 3 3 3 3 3 3 3 3 4 4 4 4 4 4 5 5 5 5 5 5 4 4 4 4 4 4 4 4 4 4 5 5 5 5 5 5 5 5 5 6 5 6 6 5 6 5 5 5 5 6 8 9 10 11 11 11 12 13 14 17 21 27 32 37 41 44 47 50 51
6 6 5 5 5 4 5 4 4 4 3 4 3 3 3 3 3 3 3 3 3 3 3 3 3 3 3 4 4 4 4 4 4 4 4 5 5 4 4 4 4 4 4 4 4 4 4 4 4 5 5 5 5 5 5 5 5 5 5 5 5 5 5 5 5 5 5 6 8 9 9 9 10 11 12 13 14 16 21 27 33 39 43 47 50
6 5 5 5 5 4 4 4 4 4 4 4 4 3 3 3 3 3 3 3 3 3 3 3 3 3 3 3 3 3 3 4 4 4 4 4 4 4 4 4 4 4 4 4 4 4 4 4 4 4 4 4 5 5 5 5 5 5 5 5 5 5 5 5 5 5 5 5 6 7 7 7 8 9 10 11 12 12 14 16 21 28 35 41 47
6 5 5 5 4 4 4 4 4 4 4 4 4 4 4 4 4 4 4 4 3 3 4 4 3 3 3 3 3 3 3 3 3 3 3 3 4 4 4 4 4 4 4 4 4 4 4 4 4 4 4 4 4 4 4 4 5 5 5 5 5 5 5 5 5 4 4 5 5 6 7 6 6 7 8 8 10 11 12 13 14 17 22 30 38
6 5 5 4 4 4 4 4 4 4 4 4 4 4 4 4 4 4 4 4 4 4 4 4 4 3 4 3 3 3 3 3 3 3 3 3 3 4 3 3 4 4 4 4 4 4 4 4 4 4 4 4 4 4 4 4 4 4 4 5 5 5 5 4 5 4 4 5 5 5 6 6 6 6 7 7 7 8 10 11 12 12 14 17 24
5 5 4 4 4 4 4 4 4 4 4 4 4 4 4 4 4 4 4 4 4 4 4 4 4 4 4 4 4 4 4 3 4 3 3 3 3 3 3 3 4 4 4 4 4 4 4 4 4 4 4 4 4 4 4 4 4 4 4 4 4 4 4 4 4 4 4 4 5 5 5 6 6 6 6 6 6 7 8 8 10 11 11 12 14
5 5 5 4 4 4 4 4 4 4 4 4 4 4 4 4 4 3 4 4 4 4 4 4 4 4 4 4 4 4 4 3 4 3 3 4 3 3 3 3 4 4 4 4 4 4 4 4 4 4 4 4 4 4 4 4 4 4 3 4 3 3 4 4 4 4 4 4 4 5 5 5 6 6 6 7 6 6 6 6 7 9 9 11 11
5 5 5 5 4 5 4 4 4 4 4 4 4 4 4 3 4 3 3 4 3 4 4 3 4 4 4 4 4 4 4 3 3 3 3 4 3 3 4 3 4 4 4 4 4 4 4 4 4 4 4 4 3 3 4 3 3 4 4 4 3 3 3 3 3 3 3 4 4 4 5 4 5 5 5 6 6 6 6 6 6 7 7 8 10
5 5 5 5 4 5 4 4 4 4 4 4 3 3 3 3 3 3 3 3 3 3 3 3 3 3 3 3 3 3 3 3 3 3 3 3 3 3 3 4 4 4 4 4 4 4 4 4 4 4 4 4 4 3 3 3 3 3 3 3 3 3 3 3 3 3 3 3 3 3 4 4 5 5 5 5 6 6 6 6 5 6 6 6 7
5 5 5 5 5 5 5 4 4 4 4 4 3 3 4 3 4 4 4 4 3 3 3 3 3 3 3 3 3 3 3 3 3 3 3 3 3 3 3 4 4 4 4 4 4 4 4 4 4 4 4 4 4 4 3 3 3 3 3 3 3 3 3 3 3 3 3 3 3 3 3 3 4 4 5 5 5 5 5 6 5 5 6 6 6
6 5 5 5 5 5 5 4 4 4 4 4 4 4 4 4 4 4 4 4 4 4 4 4 4 3 3 3 3 3 3 3 3 3 3 3 3 3 3 3 4 4 4 4 4 4 4 4 4 4 4 4 3 3 4 3 3 3 2 2 2 2 2 2 2 3 3 3 3 3 3 3 3 4 4 4 5 5 5 5 5 5 5 5 5
6 5 5 5 5 4 4 4 4 4 4 5 4 4 4 4 4 4 4 4 4 4 4 4 4 4 4 4 4 4 3 3 3 3 3 3 3 3 3 3 4 4 4 4 4 4 3 3 3 3 3 3 3 3 3 3 3 3 3 2 2 2 2 2 2 2 2 2 3 3 3 3 3 3 4 3 3 4 4 5 5 5 5 5 5
5 5 5 5 5 4 4 5 5 5 5 5 5 4 4 4 4 4 4 4 4 4 4 4 4 4 4 4 3 4 3 3 3 3 3 3 3 3 3 3 4 4 4 4 4 4 4 3 3 3 3 3 3 3 3 3 2 2 2 2 2 2 2 2 2 2 2 2 2 3 3 3 3 3 3 3 3 3 4 4 4 4 4 4 5
6 5 5 5 5 5 5 5 5 5 5 5 5 5 4 5 5 4 4 4 4 4 4 4 4 4 3 3 3 3 3 3 3 3 3 3 3 3 3 3 4 4 4 4 4 4 4 4 3 4 3 3 3 2 2 2 2 2 2 2 2 2 2 2 2 2 2 2 2 3 3 3 3 3 3 3 3 3 3 3 4 4 4 4 4
6 5 5 5 5 5 5 5 5 5 5 5 4 4 4 4 4 4 4 4 4 4 4 4 4 4 3 3 3 3 3 3 3 3 3 3 3 3 4 4 3 4 3 3 4 3 3 4 3 3 3 3 3 2 2 2 2 2 2 2 2 2 2 2 3 2 2 2 2 2 3 3 3 3 3 3 3 3 3 3 3 3 4 4 4
6 5 5 5 5 5 5 5 5 5 5 5 4 4 4 4 5 4 4 5 4 4 4 4 4 4 3 4 4 4 4 3 3 3 3 3 4 4 4 4 4 4 4 3 4 4 3 4 3 3 3 3 3 3 2 2 2 2 3 2 2 2 2 2 3 3 3 3 3 3 3 3 3 3 3 3 3 4 3 3 3 3 3 4 4
5 5 5 5 5 5 5 5 5 5 5 4 4 4 4 4 5 5 4 5 4 4 4 4 4 4 4 4 4 4 4 4 4 4 3 4 4 4 4 4 4 4 4 4 4 3 3 3 3 3 3 3 3 3 3 3 3 2 2 2 2 3 3 3 3 3 3 2 3 3 3 3 3 3 3 3 3 3 3 3 4 4 3 4 4
5 5 5 5 5 5 5 5 5 4 4 5 4 4 5 5 5 5 5 5 5 4 4 4 4 4 3 4 4 4 4 4 4 4 4 4 4 4 4 4 4 4 4 4 4 3 3 3 3 3 3 3 3 3 3 3 2 2 3 3 3 3 3 3 2 2 3 2 2 3 3 3 4 4 4 4 3 3 3 3 4 4 4 3 4
6 5 6 5 5 5 5 4 5 4 5 5 4 5 5 5 5 5 5 5 5 4 5 4 4 4 3 4 4 3 4 4 4 4 4 4 4 4 4 4 4 4 4 4 4 3 3 3 3 3 3 3 3 3 3 3 2 3 3 3 3 3 2 2 3 2 3 3 2 3 3 3 3 3 3 4 3 3 3 3 3 4 4 4 4
6 6 6 5 5 5 4 5 5 5 5 5 5 5 5 5 5 5 5 5 5 5 5 5 5 4 4 4 4 4 4 4 4 4 4 4 4 4 4 4 4 4 4 4 4 3 3 3 3 3 3 3 3 3 3 3 3 3 3 3 3 3 2 2 3 3 3 3 2 2 2 2 3 3 3 3 3 3 3 3 3 3 3 4 4
6 6 6 5 5 5 5 5 5 5 5 5 5 5 5 5 5 5 5 5 5 5 5 5 5 4 4 4 4 4 4 4 4 4 4 4 4 4 4 4 4 4 4 4 3 3 3 3 3 3 3 3 3 3 3 3 3 3 3 3 2 3 3 3 3 3 3 3 3 3 3 3 3 3 3 3 3 3 3 3 2 3 3 3 4
6 6 6 5 5 5 5 5 5 5 5 5 5 5 5 5 5 5 5 5 5 5 5 5 5 5 4 4 4 3 4 4 4 4 4 4 4 4 4 4 4 4 4 4 4 3 3 3 3 3 3 3 3 3 3 3 3 3 3 3 3 3 3 3 3 3 2 3 3 3 3 3 3 3 3 3 3 3 3 3 3 2 3 3 3
6 6 6 5 5 5 5 5 5 5 5 5 5 5 5 5 5 5 5 5 5 5 5 5 5 5 5 5 4 4 3 4 4 4 4 4 4 4 4 4 4 4 4 3 4 3 3 3 3 3 3 3 3 3 3 3 3 3 3 3 3 3 3 3 3 3 3 3 3 3 3 3 3 3 3 3 3 3 3 3 3 3 3 3 3
6 6 6 5 5 5 5 5 5 5 5 5 5 5 5 5 5 5 5 5 5 6 6 5 5 5 5 4 4 4 3 3 4 4 4 4 4 4 4 4 4 4 4 3 3 3 3 3 3 3 3 3 3 3 3 3 3 3 3 3 3 3 3 3 3 3 3 3 3 3 3 3 3 3 3 2 2 3 3 3 3 3 3 3 3
6 6 6 6 6 6 5 5 5 5 5 5 5 5 5 5 5 5 5 6 6 6 6 5 5 5 5 4 4 4 3 3 3 4 4 4 5 4 4 4 4 4 4 3 3 3 3 3 3 3 3 3 3 3 3 3 3 3 3 3 4 3 3 3 3 3 3 3 3 3 3 3 3 3 3 2 2 2 3 3 3 3 3 3 3
6 6 6 6 6 6 5 6 5 5 5 5 5 5 5 5 5 5 5 5 6 6 6 6 5 5 5 5 5 4 4 3 3 4 4 4 5 5 5 4 4 3 3 3 3 3 3 3 3 4 3 4 3 3 3 3 3 3 4 3 3 3 3 3 3 3 3 3 3 3 3 3 3 3 2 2 2 2 2 3 3 3 3 3 3
7 6 6 6 6 6 5 6 6 6 6 6 5 5 5 5 6 5 5 5 5 6 6 6 6 6 5 5 5 4 4 3 3 3 4 4 4 5 5 5 4 4 3 3 3 3 3 3 3 4 3 4 4 3 3 3 3 3 3 3 3 3 3 3 3 3 3 3 3 3 3 2 3 3 2 2 2 2 3 2 3 3 3 3 3
7 7 7 6 6 6 6 6 6 6 6 6 6 6 6 5 6 6 6 6 5 5 6 7 7 7 6 6 6 5 5 4 3 3 3 3 4 5 5 5 5 4 3 3 3 3 3 3 3 4 3 3 3 3 3 3 3 3 3 3 3 3 3 3 3 3 3 3 3 3 3 3 3 3 3 3 3 2 3 3 3 3 3 3 3
7 7 7 6 6 6 6 6 7 7 7 7 7 7 7 6 5 5 5 5 5 5 6 6 6 7 7 6 6 6 5 5 4 4 3 4 4 5 5 6 5 4 3 3 3 3 4 3 3 4 4 3 3 3 3 3 3 3 3 3 3 3 3 3 3 3 3 3 3 3 3 3 3 3 3 3 3 3 3 3 3 3 3 3 3
7 7 7 7 6 6 6 7 7 7 8 8 7 8 8 7 6 6 5 5 5 5 5 5 5 6 6 6 6 6 6 6 5 4 4 4 3 4 5 6 5 5 4 3 3 3 3 4 4 3 4 4 3 3 3 3 3 3 3 3 3 3 3 3 3 3 3 3 3 3 3 3 3 3 3 3 3 3 3 3 3 3 3 3 3
7 7 7 7 7 7 7 7 8 8 8 8 8 8 8 8 7 7 6 5 5 4 5 5 5 5 5 5 5 6 6 6 6 5 4 4 4 4 5 5 5 5 4 4 4 4 3 4 4 4 4 4 4 3 3 3 3 3 4 4 4 4 4 3 3 3 3 3 3 3 3 3 3 3 3 3 3 3 3 3 3 3 3 3 3
7 7 8 7 7 7 7 8 8 8 9 9 9 9 9 8 8 8 7 6 6 5 4 5 4 5 5 5 5 5 5 6 6 5 5 5 4 4 5 5 5 5 4 4 4 4 4 4 3 4 4 4 4 4 3 3 4 4 4 4 4 4 4 4 4 4 3 3 4 3 3 3 3 3 3 3 3 3 3 3 3 3 3 3 3
8 7 8 7 7 7 8 9 9 9 9 10 9 9 9 9 8 8 8 7 7 6 5 5 4 5 5 5 4 4 5 5 5 5 5 5 4 4 5 5 5 5 4 4 4 4 4 4 4 4 4 4 4 4 4 4 4 4 4 4 4 4 4 4 4 4 4 3 4 4 3 3 3 3 3 3 3 4 3 3 3 3 3 3 3
8 8 8 7 7 8 9 9 10 10 10 10 10 10 9 9 9 9 8 8 7 7 6 6 5 5 5 5 5 4 4 5 5 5 5 5 4 4 4 5 6 5 5 4 4 4 4 4 4 4 4 4 4 4 4 4 4 4 4 4 4 4 4 4 4 4 4 4 4 3 3 3 3 3 3 3 3 4 4 3 3 3 3 3 3
8 8 8 8 7 8 9 10 10 10 10 10 10 10 10 10 9 9 9 8 8 8 7 7 6 6 5 5 5 4 4 5 5 5 5 5 5 5 4 4 5 5 5 4 4 4 4 4 4 4 4 4 4 4 4 4 4 4 4 4 4 4 4 4 4 4 4 4 4 3 3 3 3 3 3 4 4 4 4 4 4 3 3 3 3
8 8 8 8 8 8 9 10 10 10 10 11 11 10 10 10 10 10 10 9 8 8 8 7 7 6 6 5 5 5 5 5 5 5 5 5 5 5 5 4 5 5 5 5 4 4 5 4 4 4 4 4 4 4 4 4 4 4 4 4 4 4 4 4 4 4 4 4 4 4 4 3 4 4 4 4 4 4 4 4 4 4 3 3 3
8 8 9 8 8 9 10 11 11 11 10 10 11 10 10 10 10 10 10 9 9 8 8 7 7 7 6 6 5 5 5 5 5 5 5 5 6 5 5 5 5 5 5 5 5 5 5 5 4 4 4 4 4 4 4 4 4 4 4 4 4 4 4 4 4 4 4 4 4 4 4 4 4 4 4 4 4 4 4 4 4 3 4 3 3
8 8 9 8 8 9 10 11 11 11 10 11 11 11 11 10 10 10 10 9 9 8 8 8 7 7 6 6 6 6 5 5 5 5 5 5 5 6 5 5 5 5 5 5 5 5 5 5 5 4 4 4 5 4 4 4 4 4 4 4 4 4 4 4 4 4 4 4 4 4 4 4 4 4 4 4 4 4 4 4 4 3 4 4 3
9 9 9 9 9 9 10 11 12 11 11 11 11 11 11 10 10 10 9 9 9 9 8 8 7 7 6 6 6 6 6 6 5 5 5 5 5 5 6 6 5 5 5 5 5 5 5 5 5 4 4 4 4 4 4 4 4 5 5 4 4 4 4 4 4 4 4 4 4 4 4 4 5 5 4 4 4 4 4 4 4 4 4 4 4
9 9 9 9 9 10 11 12 12 11 11 11 11 10 11 10 10 10 9 9 9 9 8 8 7 7 6 6 6 5 6 6 6 5 5 5 5 5 5 6 5 5 5 5 5 5 5 5 5 4 4 4 4 4 5 5 5 5 5 4 4 4 4 4 4 4 4 4 4 4 5 5 5 5 5 4 4 4 4 4 4 4 4 4 4
9 9 10 10 10 10 11 12 12 12 11 11 11 10 10 10 10 9 9 9 9 9 8 8 7 7 6 6 5 5 5 5 6 6 5 5 6 6 6 6 5 5 5 5 5 5 5 5 5 4 4 4 5 4 5 5 5 5 5 5 4 4 4 4 4 4 4 5 5 5 5 5 5 5 5 5 4 4 4 4 4 4 4 4 4
9 9 10 10 10 10 11 12 12 12 11 11 11 11 10 10 10 9 9 9 8 8 8 8 7 7 7 6 5 5 5 5 5 5 5 5 6 6 6 6 6 5 5 5 5 5 5 5 5 5 4 4 5 5 5 5 5 5 5 5 4 4 4 4 4 4 4 5 5 5 5 5 5 5 5 5 4 4 4 5 5 5 5 5 4
9 9 10 10 10 10 11 12 12 12 12 13 12 11 10 10 9 9 8 8 8 8 8 8 7 7 7 6 6 5 5 5 5 5 5 5 6 6 6 6 6 5 5 5 5 5 5 5 5 5 5 4 5 5 5 5 5 5 5 5 4 4 5 4 4 5 5 5 5 6 6 5 5 5 5 5 5 5 5 5 5 5 5 5 5
9 9 10 11 10 10 11 12 13 13 13 14 14 13 11 10 9 9 8 8 8 8 8 8 7 7 7 6 6 5 5 5 5 5 5 5 6 6 6 6 6 5 5 5 5 5 5 5 5 5 5 5 5 5 5 5 5 5 5 5 4 4 5 5 4 5 5 5 6 6 6 5 5 5 5 5 5 5 5 5 5 5 5 5 5
9 10 11 11 10 10 11 12 13 13 14 14 14 14 12 10 9 9 8 8 7 8 7 7 7 7 6 6 6 6 5 5 5 5 6 6 6 6 6 6 6 5 5 5 5 5 5 5 5 5 5 5 5 5 5 5 5 5 4 4 5 4 4 5 5 5 6 6 6 6 6 5 5 5 5 5 5 5 6 6 5 5 5 5 5
9 10 11 11 11 10 11 13 13 14 14 15 15 14 12 10 9 9 8 7 7 7 7 7 7 6 6 6 6 6 5 5 5 5 6 6 6 6 6 5 5 5 5 5 5 4 5 5 4 5 5 5 5 5 5 5 5 5 4 4 4 4 4 5 5 6 6 6 6 6 5 5 5 5 5 5 6 6 6 6 6 6 6 6 6
9 10 11 11 11 10 11 13 14 14 15 16 16 15 13 10 9 8 8 7 7 7 7 7 7 7 7 7 6 6 6 5 5 5 5 6 6 6 6 6 5 5 5 5 5 4 5 5 4 5 5 5 5 5 5 5 5 5 4 4 4 4 5 5 5 6 6 6 6 6 5 5 5 5 5 6 6 6 6 6 6 6 6 6 7
9 10 12 12 10 10 12 13 14 15 15 16 16 15 13 11 9 9 8 7 7 7 7 7 7 7 7 7 7 6 6 5 5 5 5 5 6 6 6 6 6 5 5 5 5 4 4 4 5 5 5 5 5 5 5 5 5 4 4 5 4 4 5 5 5 6 6 6 5 5 5 5 5 6 6 6 6 6 6 6 6 7 7 7 7
10 11 12 12 10 10 12 14 14 14 15 15 16 15 13 11 9 8 8 8 7 7 7 7 7 8 7 7 7 7 6 5 5 5 5 5 6 6 6 6 5 5 5 5 5 5 5 4 4 5 5 5 5 5 5 5 5 4 4 4 5 5 5 6 6 6 6 6 5 5 5 5 6 6 6 6 6 6 6 7 7 7 7 8 8
Wind_Speed
88 89 91 93 94 95 96 96 96 96 97 98 98 99 99 99 99 100 101 102 103 104 105 106 107 109 111 113 114 115 116 117 117 118 119 119 121 121 122 122 123 123 124 125 126 126 127 127 128 130 130 131 131 132 133 134 134 135 135 136 136 136 136 135 133 132 134 138 138 137 138 138 137 137 137 136 135 133 131 129 128 127 127 126 125
84 86 88 89 90 91 92 93 94 94 94 95 95 95 95 95 95 96 96 98 99 99 100 101 102 103 104 106 108 110 112 113 114 115 115 116 117 117 118 119 119 120 121 122 123 123 124 124 125 127 127 128 128 129 130 131 132 133 133 134 134 134 134 133 132 130 131 135 136 136 136 137 136 136 136 136 136 136 135 133 132 130 129 128 128
81 83 84 84 85 86 87 88 89 90 91 91 92 91 91 91 91 92 92 93 94 95 96 97 98 99 99 101 102 104 106 107 109 111 112 113 113 114 114 114 115 115 117 118 119 119 120 121 122 124 124 125 125 126 127 128 129 130 130 131 132 132 132 132 130 128 128 131 133 134 134 135 135 135 136 136 136 137 137 136 135 134 133 131 130
79 80 81 81 81 82 83 84 85 86 86 87 87 88 88 88 88 89 89 90 91 92 93 94 95 96 96 97 98 99 100 102 104 105 107 108 109 110 111 111 111 112 112 113 114 115 116 117 118 120 121 122 123 124 125 126 127 127 127 128 129 129 130 130 128 127 126 128 130 132 132 133 134 134 135 135 135 136 137 137 137 137 136 135 134
78 79 79 79 79 80 80 81 82 82 82 83 84 84 85 85 86 86 87 87 88 89 89 90 92 93 93 94 95 96 97 98 99 101 102 104 105 106 107 108 108 108 109 109 110 110 111 112 114 116 117 118 119 121 123 124 124 124 125 125 126 126 127 127 126 125 124 124 127 129 130 131 132 133 133 134 135 136 136 136 137 138 138 138 138
77 78 78 77 78 78 78 78 79 79 80 80 80 81 81 82 83 83 84 84 85 86 86 87 88 89 90 91 92 93 94 95 96 97 98 99 100 101 103 104 104 105 105 106 107 107 108 109 110 112 113 114 115 117 119 120 121 121 122 123 123 124 124 124 123 123 122 121 123 125 127 128 129 131 132 133 133 134 135 136 137 138 139 139 140
76 76 75 75 75 75 76 76 76 76 77 77 78 78 79 79 79 80 80 81 82 83 84 84 85 86 87 88 89 90 91 92 93 94 94 95 96 97 98 99 100 101 102 103 104 105 106 107 108 109 110 110 111 113 114 115 117 118 119 120 121 122 122 121 121 121 119 119 120 121 124 125 127 128 130 131 131 132 134 135 136 137 138 139 140
75 74 73 73 73 73 73 73 73 73 74 75 75 76 76 76 76 77 77 78 79 80 81 82 83 83 84 85 86 87 88 89 90 91 91 92 92 93 93 94 95 97 98 100 101 103 104 105 106 107 107 108 108 109 110 111 112 113 114 116 118 118 119 119 119 119 118 117 117 119 121 122 124 125 127 129 130 130 132 134 135 136 137 139 139
75 74 73 72 71 71 71 71 71 71 71 72 73 73 73 73 74 74 74 75 76 77 78 79 80 81 82 82 83 84 85 86 87 87 88 89 89 89 89 90 91 92 94 95 97 99 102 103 104 105 105 105 105 106 106 107 108 109 110 112 113 114 115 116 117 117 117 116 116 117 118 119 120 122 124 126 127 128 130 131 132 133 136 137 138
74 74 72 71 71 70 69 69 69 69 69 70 70 71 71 71 71 71 71 72 73 74 75 76 77 77 79 80 81 82 82 83 83 84 84 85 85 85 85 86 87 88 90 92 94 96 98 99 101 102 103 103 104 104 104 104 105 105 106 108 109 109 110 111 112 113 114 114 114 115 116 117 117 119 121 123 124 126 127 128 129 131 134 135 136
74 73 72 71 70 69 69 68 68 67 67 67 68 68 68 68 68 68 69 70 71 71 72 73 74 75 76 77 78 79 80 80 80 81 81 82 81 81 82 83 84 85 87 89 91 93 95 96 97 98 100 101 102 102 102 102 102 102 103 104 104 105 105 106 107 109 111 111 112 113 114 114 115 117 118 119 121 123 124 125 127 129 131 133 134
73 72 71 70 69 69 68 68 67 67 66 66 66 66 66 66 66 66 67 68 68 69 69 70 71 72 73 74 76 77 77 77 77 77 78 78 78 78 78 79 81 82 84 87 89 91 92 93 94 95 96 98 99 99 100 101 101 100 100 100 100 101 101 102 103 104 106 107 108 109 110 111 112 114 116 117 120 121 122 123 125 126 128 130 131
73 72 71 69 69 68 67 67 66 66 65 65 65 65 65 64 64 65 66 66 67 67 68 68 69 70 71 72 73 74 75 75 74 75 75 76 76 75 75 76 77 80 83 85 87 88 90 91 92 93 94 95 96 96 97 99 99 99 98 97 97 97 98 99 99 100 101 102 103 104 106 107 109 112 114 116 119 120 120 121 123 124 125 126 127
73 72 71 69 68 67 67 66 65 64 64 64 64 64 63 63 63 63 64 65 65 65 66 66 67 68 68 69 70 72 72 71 71 72 73 73 73 73 72 73 75 77 80 83 85 87 88 89 89 90 91 92 92 93 95 96 96 96 96 95 95 95 95 95 95 96 97 98 98 99 101 104 106 108 112 115 116 116 118 119 121 122 122 123 124
74 72 71 70 68 67 66 65 64 63 63 63 63 63 62 62 62 63 63 64 64 64 64 65 66 66 67 67 68 69 69 68 68 69 70 70 70 70 70 71 73 75 77 80 82 84 86 86 87 88 89 89 90 91 92 93 93 92 92 92 92 92 92 92 91 92 92 93 93 94 97 100 103 105 109 111 112 113 115 117 119 120 119 120 121
75 73 72 70 68 66 65 64 63 62 62 62 62 61 61 61 61 61 62 63 63 63 63 64 65 65 65 65 65 66 66 65 65 66 67 67 67 67 68 69 71 73 75 77 79 80 82 83 84 85 87 88 89 90 89 88 88 88 88 89 89 89 89 89 89 89 89 89 90 91 93 96 99 101 104 107 109 111 113 115 115 116 117 117 118
76 74 72 70 68 66 65 64 63 62 62 62 61 60 59 59 60 60 61 62 62 62 62 62 63 64 64 64 63 63 63 62 62 63 64 64 64 65 66 68 69 71 74 75 75 76 78 79 81 82 84 86 88 87 85 83 83 83 84 85 86 86 85 86 87 87 87 87 87 87 89 92 94 96 98 102 104 107 109 110 110 112 113 114 115
76 74 71 69 68 66 65 63 62 62 61 61 60 59 58 58 59 59 59 60 61 61 61 61 63 63 63 62 61 61 61 61 61 62 62 61 61 62 64 66 68 70 71 72 73 74 75 76 77 79 80 82 83 83 82 81 80 80 81 81 82 82 82 83 84 85 86 86 86 86 87 88 90 92 94 97 100 103 105 105 106 109 111 111 111
76 74 72 70 68 67 65 64 62 61 61 60 59 58 58 58 58 58 58 59 60 60 60 60 62 63 62 61 60 59 59 59 59 60 61 60 60 60 61 64 66 67 69 71 72 73 73 73 74 74 76 78 79 80 80 79 78 77 78 78 78 78 80 82 84 84 85 85 84 84 84 85 87 89 92 94 97 99 100 100 102 106 108 107 108
77 75 73 71 69 67 66 64 62 61 61 60 59 58 57 57 57 57 57 58 58 59 59 59 61 62 61 60 59 57 57 57 58 58 59 59 58 58 59 61 62 64 66 69 71 71 71 70 71 72 73 74 76 76 77 77 76 75 74 74 75 77 80 81 81 81 81 81 81 83 83 85 87 89 90 92 94 95 95 96 98 102 103 103 105
77 75 73 71 70 68 66 64 62 61 61 60 59 58 57 57 56 56 56 57 57 57 58 58 60 61 61 59 58 56 55 55 56 57 58 57 57 57 58 58 59 60 63 66 68 69 68 68 69 70 70 70 71 72 74 75 73 72 71 72 75 77 78 77 76 77 79 80 81 82 83 84 86 88 89 91 92 93 93 94 95 98 99 99 102
77 75 74 72 70 68 66 64 63 62 61 60 59 58 56 55 55 54 55 56 56 56 56 57 59 60 60 59 57 55 54 53 54 55 56 56 56 56 56 57 56 57 60 63 65 66 67 67 67 66 66 67 68 69 70 71 70 69 70 72 73 73 72 72 73 75 76 77 79 80 80 81 83 84 86 88 89 91 92 92 93 94 95 96 100
77 75 74 72 71 69 67 65 63 62 61 59 58 57 56 55 53 53 53 54 55 55 55 56 57 58 59 58 57 55 53 52 52 53 54 55 55 55 55 55 55 55 57 60 62 63 64 64 63 63 63 63 64 65 66 67 68 68 69 69 69 69 69 70 71 72 73 74 75 76 77 78 79 80 82 84 86 88 88 88 89 90 90 92 96
77 75 74 72 71 69 67 65 64 62 61 59 58 56 55 54 52 51 51 52 53 53 54 54 55 56 57 58 58 56 53 52 51 51 52 54 54 54 54 53 53 53 55 58 59 61 60 59 58 58 59 59 61 62 63 64 66 66 66 65 65 66 66 67 69 70 71 72 72 74 75 77 77 78 80 82 83 84 84 84 84 84 85 87 91
77 76 74 72 70 69 67 66 64 62 60 59 57 56 54 53 52 50 50 50 51 52 53 53 54 55 56 57 58 57 54 51 50 49 49 51 52 52 52 52 51 52 54 55 56 57 57 55 54 54 55 56 58 59 61 62 62 63 63 62 63 63 64 66 67 68 69 70 71 72 73 75 75 76 78 80 81 81 81 81 81 81 82 84 88
78 76 74 72 70 69 67 65 63 61 60 58 57 55 54 53 51 50 49 49 50 51 52 53 53 54 54 55 57 57 54 51 49 47 46 47 49 49 50 49 50 51 52 53 53 53 52 51 51 51 52 53 55 56 58 58 59 59 60 60 61 62 63 64 66 67 68 68 69 70 71 73 74 74 76 77 78 78 79 79 79 79 80 82 85
78 77 74 72 70 68 67 65 63 61 60 58 57 55 54 52 51 49 48 48 48 49 51 52 52 52 53 54 55 57 55 51 48 46 44 44 46 47 48 48 49 49 49 50 50 49 49 49 49 50 50 51 52 53 54 56 56 56 57 59 60 61 62 63 64 65 65 66 67 68 70 71 72 73 74 75 75 76 77 77 77 78 79 80 82
79 77 75 73 70 68 66 64 63 62 60 59 57 56 54 52 51 50 48 47 47 48 49 51 52 51 51 52 53 55 55 52 48 45 42 42 42 44 45 47 48 48 47 46 46 46 46 46 47 47 48 49 49 50 51 52 53 53 55 57 58 60 60 61 62 62 63 65 66 68 69 69 70 71 72 72 72 73 74 74 75 76 78 79 80
79 77 75 73 70 68 66 64 63 62 61 59 58 56 54 52 51 50 48 46 45 45 47 48 50 51 51 51 51 54 55 53 49 44 40 39 39 40 43 45 47 46 45 44 44 44 44 44 44 45 46 47 47 48 49 50 50 51 52 54 56 57 58 59 60 61 62 64 65 66 66 67 67 68 68 68 69 70 71 71 72 74 75 76 77
80 78 75 73 70 68 66 64 63 61 60 60 59 58 56 53 51 49 48 47 45 44 45 46 47 49 50 50 50 52 54 55 52 47 42 39 37 38 41 44 46 45 43 42 41 42 42 42 42 43 45 46 46 46 46 47 48 48 50 51 53 55 56 57 57 59 60 62 63 63 63 63 64 64 64 65 66 67 67 68 69 71 73 75 76
80 78 75 73 70 68 66 64 63 61 60 59 59 58 58 56 53 50 48 46 44 43 43 44 44 45 45 46 47 48 50 53 53 50 45 41 38 37 39 43 45 45 42 40 39 39 40 40 41 42 43 44 45 44 44 45 45 46 47 49 51 52 54 55 55 56 58 59 60 60 60 60 61 61 62 63 64 64 65 66 68 70 71 73 75
79 77 75 72 69 67 66 64 63 62 61 59 59 58 58 58 57 54 51 48 45 43 42 43 44 44 43 42 42 44 46 49 51 50 46 43 39 36 36 39 43 44 43 40 38 38 38 38 39 40 41 43 43 43 43 43 44 44 45 47 49 50 51 52 53 54 55 56 56 57 57 58 58 59 60 61 61 62 63 64 66 68 69 70 72
78 76 74 72 69 67 66 64 63 62 61 60 59 58 58 57 57 57 55 52 49 45 43 43 44 44 43 42 40 39 41 45 48 48 47 45 41 38 37 38 40 42 42 40 38 37 37 37 37 38 40 41 42 42 41 41 42 43 44 45 46 48 49 50 51 51 52 53 54 54 55 56 57 57 58 59 59 60 61 63 64 65 66 68 70
78 75 73 71 69 67 65 64 63 62 61 60 59 59 58 57 57 56 56 55 54 51 47 44 43 44 44 43 41 39 38 40 43 44 45 45 42 40 38 39 40 41 40 39 37 37 37 36 36 36 38 39 40 41 40 40 40 41 42 43 44 45 46 47 48 49 50 50 51 52 53 54 55 56 56 57 57 58 59 60 62 63 65 66 68
77 75 73 70 68 66 65 63 62 61 60 60 59 59 58 58 57 56 55 54 53 52 51 48 46 44 44 45 44 41 39 39 40 41 42 42 42 39 37 37 40 41 40 37 35 35 36 36 35 35 35 37 38 39 39 38 38 39 39 41 42 43 44 45 46 47 47 48 49 50 51 52 53 54 54 55 55 56 57 58 60 61 62 63 65
77 75 73 70 68 66 64 63 61 61 60 59 59 59 58 58 57 56 55 53 52 52 51 50 48 46 45 44 44 42 40 39 40 40 41 41 41 39 36 34 36 39 40 38 34 33 34 35 35 34 33 34 36 37 37 37 36 37 37 38 40 41 42 43 44 45 45 46 47 48 49 50 51 52 52 52 53 54 55 56 58 59 60 61 62
77 75 72 70 68 66 64 62 61 60 60 59 59 59 58 58 57 56 55 54 52 51 50 49 48 47 46 44 43 42 41 39 39 39 40 40 41 40 37 34 33 35 38 38 35 32 32 33 34 33 32 32 34 35 35 35 35 35 36 37 38 40 41 41 42 43 44 44 45 46 47 48 49 50 50 50 51 52 53 55 56 57 57 58 59
76 74 72 70 68 66 64 63 61 60 59 59 58 58 58 57 57 56 55 53 52 51 49 48 47 46 46 45 44 43 41 39 38 37 38 38 39 40 38 36 33 33 35 36 35 32 31 32 32 32 30 31 32 33 33 34 34 34 35 36 37 38 39 40 41 42 42 42 43 44 45 46 47 47 48 49 50 51 52 53 54 54 55 56 57
76 73 71 69 67 65 64 62 61 60 59 58 58 58 57 57 56 55 54 53 52 51 49 48 46 45 44 44 44 43 42 40 39 37 36 36 37 38 38 36 34 32 32 33 33 32 31 31 31 31 29 29 30 31 31 32 33 33 34 35 36 37 37 38 39 40 40 41 41 42 43 44 45 46 47 48 48 49 50 51 52 52 53 54 55
76 73 71 69 67 65 63 62 61 59 59 58 58 58 57 56 55 54 53 52 51 50 49 47 46 44 42 42 42 42 42 42 40 38 36 35 34 35 35 35 34 32 31 31 31 31 30 30 30 30 28 27 28 29 29 30 32 32 33 34 35 35 36 36 37 38 39 39 40 41 42 43 43 44 45 46 47 48 49 49 50 50 51 52 53
75 73 71 68 67 65 64 62 61 60 58 58 58 58 57 56 55 54 52 51 50 50 49 47 45 43 41 40 39 39 39 40 40 39 37 35 33 32 32 33 33 32 31 30 29 29 29 29 30 29 27 26 26 27 28 29 30 31 32 33 34 34 34 34 35 36 37 38 39 40 40 41 42 43 44 45 46 46 47 47 48 48 49 50 51
75 73 70 68 66 65 64 62 61 60 58 58 58 58 58 57 55 54 52 51 50 49 48 47 46 43 40 38 37 36 36 36 37 37 36 35 33 32 31 30 31 30 30 29 28 28 27 27 28 29 27 25 25 26 27 27 28 30 31 32 32 32 33 33 34 35 36 37 38 39 39 40 41 42 43 43 44 44 44 45 46 47 48 49 50
74 72 70 68 66 64 63 62 61 60 59 58 58 58 58 57 56 54 53 51 49 48 47 46 45 44 41 38 36 34 33 34 34 35 34 33 32 31 30 30 29 29 29 28 27 26 26 26 26 27 26 24 23 24 25 26 27 29 30 30 31 31 31 32 32 33 34 35 37 38 38 39 40 41 41 41 41 42 42 44 45 46 47 48 49
73 71 69 67 65 64 63 62 61 60 59 59 59 59 58 57 56 54 53 51 50 48 47 46 46 44 42 40 37 34 33 33 33 33 32 32 30 29 29 29 28 28 28 27 26 25 25 24 24 25 25 24 23 23 24 25 26 28 29 29 29 29 30 31 31 32 33 34 36 37 37 38 38 39 39 39 39 40 42 43 44 45 47 47 48
72 70 69 67 65 64 62 62 61 61 60 60 60 60 59 58 56 55 53 52 50 49 48 47 46 45 43 41 38 36 34 33 32 32 32 31 30 29 28 28 27 27 27 26 25 24 24 23 23 23 24 23 22 22 23 24 25 26 27 28 28 28 29 29 30 31 32 34 35 36 36 37 36 37 37 38 39 40 41 43 44 45 46 46 46
72 70 68 66 65 64 63 62 62 61 60 60 60 61 60 58 57 55 54 52 51 50 48 48 47 45 43 41 39 37 35 34 33 32 32 31 30 28 28 27 27 26 26 25 24 23 23 23 22 22 22 22 21 22 22 23 24 25 26 26 27 27 28 28 29 30 31 33 34 34 35 35 35 35 36 37 38 40 41 42 43 44 44 44 44
71 69 67 66 65 63 62 62 62 61 61 61 61 61 60 59 57 56 54 53 51 50 49 48 47 46 44 42 40 38 37 35 34 32 32 31 30 29 28 28 27 26 25 25 23 22 22 22 21 21 21 21 20 21 22 22 23 24 25 25 26 26 27 28 28 29 30 32 33 33 33 33 34 34 35 36 38 39 40 41 42 42 43 43 43
70 69 67 65 64 63 62 62 61 61 61 61 61 61 60 59 57 56 55 54 52 50 49 49 48 47 46 44 42 40 38 37 35 34 32 32 31 30 28 28 27 27 25 24 23 22 21 21 20 20 19 19 19 20 21 21 22 23 24 24 25 25 26 27 28 28 29 31 31 32 32 32 33 34 35 36 38 39 40 40 41 41 42 42 43
70 68 67 65 64 63 62 61 61 61 61 61 61 61 60 59 57 57 56 55 53 51 50 49 49 48 48 46 44 42 40 39 37 35 34 32 32 31 30 28 27 27 26 24 23 22 21 20 19 19 18 18 19 19 20 20 21 22 23 23 24 25 26 26 27 27 28 29 30 30 31 32 33 34 35 36 37 38 39 40 40 40 41 42 43
69 68 67 65 64 62 61 61 61 60 60 60 60 60 60 58 57 57 56 55 54 53 51 50 50 50 49 47 46 43 42 40 38 37 35 33 32 32 31 29 28 27 26 24 23 21 21 20 19 18 17 17 18 18 19 20 20 21 21 22 23 24 25 26 26 26 27 27 28 29 30 31 33 34 35 36 37 38 39 39 39 40 41 42 43
69 67 66 65 64 62 61 60 60 60 59 59 59 60 59 58 57 57 56 56 55 54 52 52 51 51 50 49 47 44 42 41 39 38 36 34 33 32 31 30 28 27 25 24 23 21 20 19 18 17 16 16 17 17 18 19 19 19 20 21 22 23 24 25 25 25 26 26 27 28 29 31 32 33 34 36 37 38 38 39 39 40 41 42 43
Wind_Direction
292 291 290 289 288 288 287 286 284 283 281 280 279 278 278 277 276 275 274 273 272 272 271 270 269 268 268 268 268 267 267 266 266 265 264 263 263 262 262 261 261 260 260 260 260 259 259 259 258 258 258 257 256 256 255 255 254 254 254 254 253 253 253 252 251 250 250 251 251 250 250 250 249 248 248 247 246 246 245 244 244 245 245 245 245
293 292 291 290 289 288 287 286 286 284 283 282 281 280 279 278 278 277 276 275 274 273 272 271 270 269 268 267 267 266 266 266 266 266 265 264 263 263 262 261 261 260 260 259 259 259 258 258 258 258 258 257 257 256 256 255 255 254 254 253 253 253 252 251 250 249 249 250 250 250 249 249 249 248 247 247 246 245 245 244 243 243 244 244 244
294 293 291 290 289 288 287 286 285 285 284 284 283 282 281 280 279 278 276 275 275 274 273 272 271 270 269 268 267 266 266 266 265 265 265 265 265 264 263 263 262 261 260 260 259 259 258 258 258 257 257 257 257 256 256 256 255 255 254 254 253 253 252 251 250 249 248 248 249 249 249 248 248 247 247 246 245 245 244 243 243 242 242 242 243
297 296 294 293 292 290 289 288 287 286 285 284 284 283 282 281 280 279 277 276 275 274 273 273 272 271 270 269 268 267 267 266 265 265 265 265 265 265 265 264 264 263 262 261 261 260 259 259 258 257 257 257 256 256 256 255 255 255 254 254 254 253 252 252 251 249 248 247 248 248 248 248 247 247 246 245 245 244 243 243 242 242 241 241 241
301 299 298 297 295 293 292 291 289 288 287 286 285 284 283 282 281 280 278 277 276 275 274 273 272 271 271 270 269 268 268 267 266 265 265 265 265 265 265 265 264 264 264 263 262 261 261 260 259 258 257 257 256 256 255 255 255 254 254 254 254 253 253 252 251 250 249 248 247 247 247 247 247 246 246 245 244 243 243 242 242 241 240 240 240
304 302 301 299 297 296 294 293 291 290 289 287 286 285 284 283 282 281 280 279 277 276 275 274 273 272 271 271 270 269 268 267 267 266 266 265 265 265 264 264 264 264 264 264 263 263 262 261 260 259 258 257 256 256 255 255 254 254 254 254 253 253 253 252 252 251 250 248 247 247 247 247 246 246 246 245 244 243 242 242 241 240 240 239 239
307 304 303 301 299 298 296 295 293 292 290 289 287 286 285 283 282 281 280 280 279 278 277 275 274 273 272 271 270 270 269 268 267 267 266 265 265 264 264 264 264 264 264 264 263 263 262 262 261 260 259 258 257 256 256 255 254 254 253 253 253 253 252 252 251 251 250 249 248 247 247 247 246 246 245 245 244 243 242 242 241 240 239 239 238
309 307 305 303 302 300 298 297 295 293 292 290 288 287 286 285 283 282 281 280 279 278 278 277 276 275 274 272 271 270 270 269 268 268 267 266 265 265 264 264 264 263 263 263 263 262 262 261 261 260 260 259 258 257 256 256 255 254 253 253 252 252 251 251 251 250 249 249 248 247 247 246 246 245 245 245 244 243 242 241 241 240 239 239 238
312 310 308 307 305 303 301 299 297 295 294 292 290 289 287 286 285 284 282 281 280 279 278 277 276 276 275 274 273 272 271 270 269 269 268 267 266 266 265 264 264 263 262 262 261 261 261 261 260 260 260 259 259 258 257 256 255 254 254 253 252 251 251 250 250 250 249 248 247 247 246 246 246 245 245 245 244 243 242 242 241 240 240 239 238
315 313 311 309 307 306 304 302 299 297 296 294 292 291 289 288 286 285 284 283 281 280 279 278 277 276 275 274 274 273 272 271 270 270 269 268 268 267 266 266 265 264 263 262 261 260 260 260 260 260 260 259 259 258 257 257 256 255 254 253 252 251 251 250 250 249 249 248 247 246 246 246 245 245 245 245 244 244 243 242 241 240 240 239 238
317 315 313 311 310 308 306 304 302 300 298 296 294 292 291 290 288 287 285 284 282 281 280 279 278 277 276 275 274 274 273 272 271 271 270 269 269 268 267 267 266 265 264 263 262 261 260 259 259 259 259 259 259 258 258 257 256 255 254 254 253 252 251 250 250 249 248 248 247 246 246 245 245 245 244 244 244 244 243 242 241 240 240 239 238
319 317 315 314 312 311 309 307 304 302 300 298 296 294 293 292 290 289 287 285 284 282 281 280 279 278 277 276 275 275 274 273 272 272 271 270 270 269 268 267 267 266 265 264 262 262 261 260 259 258 258 258 257 257 257 257 257 256 255 254 253 253 252 250 250 249 248 247 246 246 245 245 245 244 244 243 243 243 242 241 241 240 239 239 238
321 319 317 316 314 313 311 309 307 305 303 300 298 297 295 294 292 291 289 287 286 284 283 282 280 279 278 277 276 276 275 274 274 273 272 271 270 269 268 267 266 266 265 264 263 262 261 260 260 259 258 257 257 257 256 256 257 256 256 255 254 253 252 251 249 249 248 247 247 246 246 245 244 244 243 243 242 242 242 241 241 240 239 238 238
323 321 319 318 317 315 313 311 309 307 305 303 301 299 298 296 295 293 291 289 288 286 285 283 282 281 279 278 277 276 276 275 275 274 273 272 271 270 269 267 265 264 264 263 263 262 262 261 260 260 259 258 258 257 256 256 256 256 255 255 255 254 253 252 250 249 248 248 247 246 245 245 244 243 243 242 242 241 241 241 240 240 239 238 237
325 323 322 320 319 317 315 313 311 309 306 304 302 301 300 298 296 295 293 291 290 288 287 285 284 282 281 279 278 278 277 276 276 275 273 273 272 271 269 267 265 264 263 262 261 261 261 261 261 261 260 259 258 257 256 256 256 256 256 255 255 255 254 254 253 251 250 248 247 246 245 245 244 243 243 242 242 241 241 240 240 239 239 238 237
326 325 324 322 320 318 316 314 312 310 308 306 304 303 302 300 298 296 295 293 291 290 288 287 285 284 282 281 280 279 278 277 276 275 274 273 272 271 269 268 266 264 263 261 261 261 261 261 261 261 260 260 259 258 257 257 257 257 257 256 256 255 255 255 254 253 251 250 248 246 245 245 244 243 243 243 242 241 240 240 239 239 239 238 238
327 326 325 324 322 320 318 316 314 312 310 308 306 305 304 302 299 298 296 294 292 291 290 288 287 285 284 283 282 281 280 279 277 276 274 273 272 271 270 268 267 265 264 263 262 261 261 260 260 260 260 260 260 260 259 259 258 258 257 257 257 256 255 255 254 253 252 251 249 248 246 246 245 244 243 243 243 242 241 240 239 239 239 238 238
328 327 326 325 323 321 319 317 315 313 311 309 308 307 305 303 301 299 297 295 294 293 291 290 288 287 285 285 284 283 282 281 279 277 276 274 273 271 271 269 268 267 266 265 264 262 261 261 260 260 260 261 261 262 261 260 259 258 257 256 256 256 255 255 254 253 252 251 250 248 247 246 246 245 244 243 243 242 241 240 240 239 238 237 237
329 328 327 326 324 322 321 319 317 315 313 311 310 309 307 305 302 301 299 297 295 294 293 291 289 288 287 286 285 284 283 282 281 279 278 276 274 272 271 270 269 268 268 267 265 264 262 262 262 261 261 261 261 261 261 260 259 257 256 256 255 255 254 253 252 251 250 249 248 247 247 246 246 245 244 243 243 242 241 240 240 239 238 236 236
330 329 328 326 325 323 322 320 319 316 314 313 311 310 309 306 304 303 301 299 297 296 295 293 292 290 289 288 287 286 285 284 282 281 279 278 276 274 272 270 269 269 268 268 266 265 264 264 262 261 260 260 260 261 260 260 259 258 257 256 255 254 252 251 250 250 250 249 248 247 246 245 245 244 244 243 243 242 240 239 239 239 238 236 235
331 330 329 327 326 325 323 322 320 318 316 315 313 312 310 308 306 305 303 301 299 298 297 295 293 292 291 290 289 288 286 285 284 283 281 280 278 276 274 272 270 270 269 268 267 266 265 264 263 262 261 261 261 260 260 260 259 258 257 256 254 252 252 252 251 250 250 249 248 246 244 243 243 242 242 242 242 241 239 238 237 237 237 236 235
332 331 330 328 327 326 324 323 321 319 318 316 314 313 311 309 308 307 305 303 302 300 299 297 295 294 293 292 291 289 288 287 286 285 283 282 280 278 276 274 272 271 269 268 267 267 265 264 263 263 262 262 261 261 261 261 260 259 256 255 254 254 254 253 252 250 249 248 248 247 246 245 244 243 242 242 241 241 239 237 236 236 235 235 235
333 332 331 329 328 327 325 324 323 321 319 318 316 315 313 311 310 309 307 305 303 301 300 298 296 295 295 294 293 291 291 290 288 287 286 284 282 280 279 277 275 273 271 270 268 266 265 265 264 264 263 262 262 261 261 260 259 258 256 255 255 254 253 252 251 250 249 248 247 247 247 246 245 244 244 243 243 242 241 239 238 236 235 235 235
334 333 332 331 330 328 327 325 324 322 321 319 318 316 315 313 312 311 309 306 304 303 301 300 299 298 297 296 295 294 293 292 290 288 287 285 284 282 280 279 277 275 272 271 269 268 267 266 265 265 264 262 261 260 259 258 258 257 256 255 254 253 252 251 250 249 248 247 246 245 244 244 243 243 242 242 242 242 241 241 240 238 236 235 235
335 334 333 332 331 329 328 326 325 324 323 321 320 319 317 316 314 313 311 309 307 305 304 302 301 299 298 297 296 295 294 293 291 289 287 285 284 283 281 280 278 275 273 271 270 270 269 268 267 264 262 260 259 258 257 257 257 257 256 255 254 252 251 250 249 248 247 246 245 244 243 243 242 241 241 240 240 240 240 239 238 237 235 234 234
336 335 334 333 332 331 329 328 327 325 324 323 322 321 320 318 316 315 313 312 310 308 306 303 301 300 298 297 296 295 295 294 293 291 289 287 285 284 282 280 278 276 274 273 271 271 270 269 267 264 261 259 258 257 257 256 255 255 255 254 253 251 250 248 247 247 246 245 245 244 243 242 241 240 240 240 239 239 239 238 237 236 235 234 234
336 336 335 334 333 332 331 329 328 327 326 325 324 323 322 320 319 318 316 314 312 309 307 305 303 302 301 300 298 297 297 296 296 295 293 291 289 287 285 283 280 277 275 274 273 272 271 269 267 265 263 261 259 257 256 255 254 254 253 252 251 250 249 248 247 246 246 245 244 243 242 241 241 240 239 239 238 238 238 237 237 236 235 233 233
337 337 336 336 335 333 332 331 330 329 328 327 326 325 324 323 321 320 318 316 314 311 309 306 305 304 302 302 300 299 298 298 297 296 295 293 291 289 286 284 282 279 277 276 274 273 271 269 268 266 264 262 260 258 257 256 254 253 252 251 251 250 249 248 247 246 245 244 244 243 242 241 240 239 239 238 238 237 237 236 236 235 235 234 233
338 338 337 336 336 334 333 333 332 331 330 328 327 326 326 325 323 322 320 318 316 313 311 309 307 306 305 304 303 301 300 299 298 298 296 295 292 290 287 285 282 281 280 278 276 274 272 270 268 267 265 263 261 259 258 256 254 253 252 251 250 250 249 248 247 245 244 244 243 243 242 242 241 240 239 239 238 237 236 235 235 234 234 234 233
339 338 338 337 337 335 335 334 333 332 331 330 329 328 327 326 325 324 322 320 318 316 314 312 310 309 308 307 306 305 303 302 302 302 301 299 296 293 291 288 285 283 281 280 278 276 273 271 269 267 265 264 262 260 258 256 255 253 251 250 250 249 248 247 246 245 244 244 244 243 243 242 242 241 240 239 238 237 236 235 234 233 233 233 232
339 339 338 338 337 336 335 335 334 333 333 332 331 330 329 327 326 325 324 323 321 319 316 313 310 309 308 307 306 305 303 302 302 303 303 301 299 296 293 290 288 286 284 282 279 276 274 272 269 267 266 264 262 260 258 256 255 253 251 250 249 248 248 247 246 245 244 244 244 243 243 242 242 241 240 238 237 236 235 234 234 233 232 231 231
340 339 339 338 338 337 336 336 335 335 334 333 333 332 330 329 328 328 327 325 324 322 319 316 313 311 309 308 307 306 304 303 303 303 303 302 300 298 294 291 289 288 287 285 282 278 275 272 270 267 266 264 263 261 259 256 255 253 251 250 249 248 247 246 245 244 243 243 243 242 242 241 241 240 239 238 236 235 234 233 233 233 232 231 231
340 340 339 339 338 338 338 337 337 336 336 335 334 334 332 331 330 330 329 328 326 325 323 320 317 314 313 311 309 307 305 303 303 303 304 304 302 301 297 293 290 289 288 287 285 281 277 273 270 267 265 264 263 262 259 257 255 253 252 250 249 248 247 246 245 244 243 242 242 241 241 240 239 238 238 237 236 234 233 233 232 232 232 231 231
341 341 340 339 339 339 338 338 338 338 337 337 336 335 334 333 332 331 330 329 328 327 326 324 321 319 317 315 313 311 308 304 302 302 302 303 303 302 300 296 293 290 288 287 285 283 279 275 271 267 265 264 263 262 260 258 255 254 252 251 250 248 247 246 245 243 242 241 241 240 240 239 238 238 237 236 235 234 233 232 231 231 231 231 230
341 341 341 340 340 339 339 339 339 339 339 338 337 336 335 334 333 332 331 330 329 328 327 326 325 323 321 318 316 314 311 308 305 303 302 302 301 301 299 297 294 292 290 288 285 283 280 277 273 269 266 264 263 262 261 258 256 254 252 251 249 248 246 245 244 243 241 241 240 239 239 238 238 237 237 236 235 233 232 232 231 230 230 230 230
342 341 341 340 340 340 340 340 340 340 340 339 338 337 336 335 334 333 332 331 330 329 328 327 326 324 322 320 317 316 314 312 309 306 305 304 303 302 300 297 294 292 291 290 287 283 280 277 275 271 267 265 263 262 261 259 256 254 252 250 249 247 246 244 243 242 241 240 239 239 238 238 237 237 236 235 234 233 232 231 231 230 230 230 230
342 342 341 341 340 340 340 341 341 341 341 341 340 339 337 336 334 333 332 332 331 330 329 328 326 325 323 321 319 317 315 314 311 309 307 306 305 304 303 301 296 292 291 291 289 286 281 278 275 272 268 265 263 262 260 258 256 254 252 250 248 246 245 243 242 242 240 239 239 238 238 237 237 236 236 235 234 233 232 231 230 230 229 229 229
342 342 342 341 341 341 341 341 342 342 342 342 341 340 338 337 335 334 333 332 331 330 329 328 327 326 324 322 320 319 317 315 313 310 308 306 305 304 304 303 300 295 292 291 290 288 283 279 276 273 270 266 263 261 260 258 256 253 251 249 247 246 244 243 242 241 241 239 238 238 237 237 236 236 235 235 233 232 232 231 230 229 229 228 228
343 342 342 341 341 341 341 342 342 342 343 343 342 341 340 338 336 335 333 332 331 330 330 329 328 327 325 323 321 319 318 316 314 313 310 308 307 305 304 303 302 298 295 293 292 290 286 282 278 275 271 267 264 261 259 257 255 253 251 249 247 245 243 242 241 241 241 240 239 238 237 236 236 235 234 233 233 232 231 230 229 228 228 227 227
343 343 342 342 341 341 341 342 342 343 343 343 343 342 341 339 338 336 335 333 332 331 330 330 329 328 326 324 322 320 318 317 316 315 313 311 309 307 305 304 303 301 298 295 293 291 288 284 280 277 273 269 265 261 258 256 255 253 250 248 246 244 243 241 241 240 240 239 238 237 236 235 234 233 233 232 231 231 230 229 229 228 227 227 226
343 343 343 342 341 341 341 342 342 343 344 344 344 343 341 340 339 337 336 335 334 333 331 330 329 329 327 326 324 321 319 317 316 316 315 314 312 309 307 305 304 302 300 297 294 292 289 285 282 279 275 270 266 262 259 255 253 251 249 247 246 244 242 241 240 239 239 238 237 236 235 234 233 232 231 230 230 230 229 228 228 227 227 226 225
343 343 343 342 341 341 341 342 342 343 344 344 345 344 343 341 340 339 338 337 335 334 333 332 331 330 329 327 325 323 320 318 316 316 316 316 315 313 310 307 305 303 301 299 296 293 289 286 283 281 277 272 267 263 259 256 252 250 248 246 245 243 241 240 239 238 237 237 236 235 234 233 232 231 230 229 229 228 228 227 227 226 226 225 224
343 343 343 342 341 341 341 342 342 343 344 345 345 345 344 342 341 340 339 338 337 336 335 334 333 332 331 330 328 326 323 321 318 317 317 317 317 315 313 310 307 305 302 301 298 294 290 287 283 281 278 274 268 263 259 255 252 249 247 245 243 242 240 239 238 237 236 236 235 234 233 232 231 230 229 228 227 227 226 226 226 225 224 224 223
344 343 343 342 341 341 341 342 342 343 344 345 346 346 344 343 341 341 340 339 338 337 337 336 336 335 333 332 332 330 328 325 323 321 320 320 319 317 315 312 309 306 304 302 299 296 292 288 284 281 279 275 270 264 259 255 251 249 247 244 242 240 239 237 237 236 236 235 234 233 232 231 230 229 228 227 226 225 225 225 224 224 224 223 222
344 343 343 342 341 341 342 342 343 344 345 346 346 346 344 343 342 341 341 340 339 339 339 338 338 337 336 335 335 334 333 330 328 325 324 323 322 319 316 313 310 308 305 303 300 297 293 289 285 281 278 275 271 265 260 255 250 247 246 243 241 238 237 236 235 234 234 234 234 233 232 231 229 228 227 226 225 224 223 223 224 223 223 223 222
344 344 343 342 341 341 342 342 343 344 345 346 346 346 344 343 343 342 342 341 341 340 340 340 340 339 339 338 338 338 337 334 332 329 327 325 323 321 318 314 311 309 306 304 301 297 294 290 286 282 278 275 271 265 260 255 250 247 244 242 240 237 235 233 232 232 232 233 232 232 231 230 228 226 225 224 223 223 222 222 222 222 222 222 221
345 344 343 342 342 342 342 343 343 344 345 346 346 346 344 343 343 343 342 342 342 342 342 341 341 341 341 341 341 340 339 337 335 332 330 327 325 322 319 316 313 311 308 306 302 298 294 291 287 283 279 275 270 265 260 256 251 247 243 240 238 236 234 232 230 230 230 231 231 230 229 228 227 225 223 223 222 221 221 221 221 221 221 220 219
345 344 344 343 342 342 343 343 344 345 345 346 346 346 345 344 344 343 343 343 343 343 343 343 343 343 343 343 343 343 341 339 337 335 332 329 326 324 321 318 315 313 311 308 304 300 295 291 288 284 279 274 270 265 260 256 252 248 244 240 236 234 232 230 229 228 229 229 228 227 226 225 224 223 222 221 220 220 220 219 219 218 218 217 216
345 345 344 343 342 342 343 344 344 345 345 346 346 345 345 344 344 344 344 344 344 345 345 345 345 345 345 344 344 344 343 341 338 336 334 331 328 325 323 321 318 315 313 310 306 301 296 292 288 284 279 274 269 264 259 255 252 248 244 240 236 232 231 229 228 227 227 226 225 224 223 222 221 221 220 219 219 218 218 217 216 215 215 215 214
345 345 344 343 342 343 343 344 344 345 345 346 346 345 345 345 345 345 345 345 345 345 346 346 347 346 346 345 345 345 344 342 340 338 336 333 330 327 325 323 321 318 315 312 308 303 298 294 289 283 278 273 268 263 258 255 252 248 244 240 236 232 230 228 226 225 225 224 222 221 220 219 219 218 218 217 217 216 215 214 213 213 212 212 212
345 345 344 343 343 343 344 344 344 345 345 346 346 346 346 346 346 346 347 347 347 346 347 347 347 347 346 345 345 345 344 343 341 339 337 334 332 329 327 325 323 320 317 314 310 305 300 295 290 284 277 271 266 262 258 254 251 247 243 239 235 232 229 226 225 224 223 221 219 218 217 217 217 216 215 215 215 214 213 211 211 210 210 210 209